| time (UTC) | temp F | wind direction | speed MPH | gust MPH | rain 1hr in | rain 24hr in | rain mn in | humidity % | barometer mb |
| 20260904114533 | 53 | 95 | 0.0 | 4.0 | 0.01 | 0.21 | 0.01 | 88 | 1011.4 |
| 20260904113032 | 53 | 96 | 2.0 | 3.0 | 0.00 | 0.20 | 0.00 | 88 | 1011.1 |
| 20260904111528 | 53 | 103 | 1.0 | 4.0 | 0.00 | 0.20 | 0.00 | 87 | 1010.9 |
| 20260904110028 | 53 | 129 | 2.0 | 3.0 | 0.00 | 0.20 | 0.00 | 88 | 1011.0 |
| 20260904104533 | 53 | 119 | 1.0 | 3.0 | 0.00 | 0.20 | 0.00 | 89 | 1010.9 |
| 20260904103038 | 53 | 130 | 2.0 | 4.0 | 0.00 | 0.20 | 0.00 | 89 | 1010.8 |
| 20260904101527 | 53 | 91 | 2.0 | 3.0 | 0.00 | 0.20 | 0.00 | 90 | 1010.6 |
| 20260904100030 | 54 | 94 | 2.0 | 4.0 | 0.00 | 0.20 | 0.00 | 89 | 1010.7 |
| 20260904094530 | 54 | 121 | 1.0 | 3.0 | 0.00 | 0.20 | 0.00 | 89 | 1010.7 |
| 20260904093036 | 54 | 117 | 2.0 | 4.0 | 0.00 | 0.20 | 0.00 | 90 | 1010.5 |
| 20260904091521 | 53 | 111 | 1.0 | 2.0 | 0.00 | 0.20 | 0.00 | 90 | 1010.4 |
| 20260904090004 | 54 | 93 | 1.0 | 2.0 | 0.00 | 0.20 | 0.00 | 89 | 1010.4 |
| 20260904084508 | 54 | 96 | 0.0 | 3.0 | 0.00 | 0.20 | 0.00 | 89 | 1010.5 |
| 20260904083016 | 54 | 121 | 0.0 | 3.0 | 0.00 | 0.21 | 0.00 | 89 | 1010.4 |
| 20260904081517 | 54 | 105 | 2.0 | 6.0 | 0.00 | 0.21 | 0.00 | 90 | 1010.3 |
| 20260904080041 | 55 | 87 | 1.0 | 3.0 | 0.00 | 0.21 | 0.00 | 91 | 1010.4 |
| 20260904074509 | 55 | 87 | 0.0 | 3.0 | 0.00 | 0.22 | 0.00 | 91 | 1010.4 |
| 20260904073009 | 55 | 74 | 2.0 | 4.0 | 0.00 | 0.22 | 0.00 | 91 | 1010.4 |
| 20260904071514 | 55 | 99 | 1.0 | 6.0 | 0.00 | 0.22 | 0.00 | 90 | 1010.3 |
| 20260904070021 | 55 | 98 | 2.0 | 5.0 | 0.00 | 0.22 | 0.00 | 91 | 1010.4 |
| 20260904064530 | 56 | 89 | 3.0 | 7.0 | 0.00 | 0.22 | 0.22 | 90 | 1010.3 |
| 20260904063016 | 56 | 81 | 3.0 | 6.0 | 0.00 | 0.23 | 0.22 | 90 | 1010.5 |
| 20260904061520 | 56 | 87 | 3.0 | 4.0 | 0.00 | 0.23 | 0.22 | 90 | 1010.4 |
| 20260904060017 | 56 | 103 | 2.0 | 4.0 | 0.00 | 0.23 | 0.22 | 90 | 1010.3 |
| 20260904054526 | 56 | 74 | 3.0 | 4.0 | 0.00 | 0.23 | 0.22 | 90 | 1010.4 |
| 20260904053033 | 56 | 90 | 0.0 | 3.0 | 0.00 | 0.23 | 0.22 | 89 | 1010.6 |
| 20260904051524 | 56 | 90 | 1.0 | 3.0 | 0.00 | 0.23 | 0.22 | 88 | 1010.6 |
| 20260904050018 | 56 | 119 | 0.0 | 0.0 | 0.00 | 0.23 | 0.22 | 89 | 1010.4 |
| 20260904044535 | 56 | 119 | 0.0 | 0.0 | 0.00 | 0.23 | 0.22 | 88 | 1010.5 |
| 20260904043028 | 56 | 119 | 0.0 | 0.0 | 0.00 | 0.23 | 0.22 | 89 | 1010.6 |
| 20260904041538 | 56 | 73 | 0.0 | 0.0 | 0.00 | 0.23 | 0.22 | 89 | 1010.5 |
| 20260904040016 | 56 | 73 | 0.0 | 2.0 | 0.00 | 0.23 | 0.22 | 88 | 1010.5 |
| 20260904034520 | 57 | 65 | 1.0 | 3.0 | 0.00 | 0.23 | 0.22 | 88 | 1010.4 |
| 20260904033027 | 56 | 97 | 0.0 | 1.0 | 0.00 | 0.23 | 0.22 | 88 | 1010.3 |
| 20260904031530 | 57 | 67 | 2.0 | 4.0 | 0.00 | 0.23 | 0.22 | 86 | 1010.0 |
| 20260904030011 | 57 | 105 | 3.0 | 6.0 | 0.00 | 0.23 | 0.22 | 86 | 1009.9 |
| 20260904024515 | 57 | 79 | 4.0 | 7.0 | 0.00 | 0.23 | 0.22 | 87 | 1009.5 |
| 20260904023024 | 58 | 116 | 3.0 | 7.0 | 0.00 | 0.23 | 0.22 | 87 | 1010.1 |
| 20260904021535 | 58 | 75 | 4.0 | 7.0 | 0.00 | 0.23 | 0.22 | 86 | 1009.9 |
| 20260904020041 | 58 | 120 | 2.0 | 5.0 | 0.00 | 0.23 | 0.22 | 87 | 1009.8 |
| 20260904014516 | 58 | 96 | 3.0 | 6.0 | 0.00 | 0.23 | 0.22 | 86 | 1010.0 |
| 20260904013020 | 57 | 73 | 5.0 | 7.0 | 0.00 | 0.23 | 0.22 | 86 | 1010.1 |
| 20260904011528 | 58 | 56 | 3.0 | 8.0 | 0.00 | 0.23 | 0.22 | 86 | 1010.1 |
| 20260904010008 | 58 | 92 | 5.0 | 8.0 | 0.00 | 0.23 | 0.22 | 1010.1 | |
| 20260904004510 | 59 | 82 | 4.0 | 7.0 | 0.00 | 0.23 | 0.22 | 1010.0 | |
| 20260904003017 | 58 | 88 | 2.0 | 4.0 | 0.00 | 0.23 | 0.22 | 1010.2 | |
| 20260904001504 | 59 | 136 | 1.0 | 4.0 | 0.01 | 0.23 | 0.22 | 1010.1 | |
| 20260904000006 | 58 | 101 | 0.0 | 3.0 | 0.03 | 0.24 | 0.22 | 79 | 1010.2 |
| 20260903234509 | 58 | 150 | 1.0 | 6.0 | 0.03 | 0.24 | 0.22 | 78 | 1010.1 |
| 20260903233014 | 58 | 233 | 5.0 | 10.0 | 0.03 | 0.24 | 0.22 | 78 | 1010.3 |
| 20260903231524 | 59 | 240 | 6.0 | 18.0 | 0.02 | 0.23 | 0.21 | 73 | 1010.2 |
| 20260903230005 | 63 | 269 | 7.0 | 11.0 | 0.00 | 0.21 | 0.19 | 63 | 1010.0 |
| 20260903224507 | 63 | 267 | 3.0 | 7.0 | 0.00 | 0.21 | 0.19 | 62 | 1010.1 |
| 20260903223042 | 64 | 288 | 2.0 | 4.0 | 0.00 | 0.21 | 0.19 | 60 | 1010.1 |
| 20260903221526 | 63 | 236 | 0.0 | 6.0 | 0.00 | 0.21 | 0.19 | 62 | 1009.9 |
| 20260903220045 | 63 | 256 | 3.0 | 8.0 | 0.00 | 0.21 | 0.19 | 63 | 1010.1 |
| 20260903214529 | 62 | 234 | 5.0 | 15.0 | 0.00 | 0.21 | 0.19 | 63 | 1010.2 |
| 20260903213007 | 62 | 152 | 6.0 | 16.0 | 0.00 | 0.21 | 0.19 | 64 | 1010.4 |
| 20260903211516 | 62 | 183 | 8.0 | 18.0 | 0.00 | 0.22 | 0.19 | 64 | 1010.5 |
| 20260903210035 | 63 | 217 | 6.0 | 14.0 | 0.00 | 0.23 | 0.19 | 66 | 1010.3 |
| 20260903204530 | 63 | 209 | 9.0 | 14.0 | 0.00 | 0.23 | 0.19 | 66 | 1010.2 |
| 20260903203031 | 63 | 173 | 4.0 | 12.0 | 0.00 | 0.24 | 0.19 | 69 | 1010.2 |
| 20260903201515 | 62 | 134 | 7.0 | 13.0 | 0.00 | 0.27 | 0.19 | 70 | 1010.3 |
| 20260903200036 | 62 | 153 | 8.0 | 12.0 | 0.00 | 0.32 | 0.19 | 68 | 1010.3 |
| 20260903194537 | 62 | 180 | 7.0 | 17.0 | 0.00 | 0.37 | 0.19 | 69 | 1010.3 |
| 20260903193030 | 61 | 160 | 5.0 | 12.0 | 0.10 | 0.39 | 0.19 | 79 | 1010.3 |
| 20260903191535 | 60 | 233 | 4.0 | 11.0 | 0.10 | 0.40 | 0.19 | 80 | 1010.6 |
| 20260903190054 | 59 | 189 | 3.0 | 10.0 | 0.10 | 0.42 | 0.19 | 83 | 1010.5 |
| 20260903184537 | 58 | 237 | 10.0 | 21.0 | 0.10 | 0.43 | 0.19 | 1010.4 | |
| 20260903183038 | 62 | 99 | 6.0 | 12.0 | 0.00 | 0.34 | 0.09 | 74 | 1010.1 |
| 20260903181508 | 62 | 82 | 6.0 | 12.0 | 0.00 | 0.36 | 0.09 | 77 | 1010.3 |
| 20260903180014 | 61 | 68 | 6.0 | 11.0 | 0.00 | 0.38 | 0.09 | 80 | 1010.4 |
| 20260903174523 | 61 | 59 | 8.0 | 12.0 | 0.00 | 0.40 | 0.09 | 80 | 1010.3 |
| 20260903173027 | 59 | 88 | 5.0 | 10.0 | 0.00 | 0.40 | 0.09 | 84 | 1010.4 |
| 20260903171514 | 58 | 84 | 5.0 | 8.0 | 0.00 | 0.40 | 0.09 | 83 | 1010.6 |
| 20260903170015 | 57 | 89 | 4.0 | 6.0 | 0.00 | 0.40 | 0.09 | 1010.7 | |
| 20260903164534 | 57 | 73 | 2.0 | 5.0 | 0.01 | 0.40 | 0.09 | 87 | 1010.8 |
| 20260903163024 | 55 | 65 | 4.0 | 8.0 | 0.01 | 0.40 | 0.09 | 89 | 1010.8 |
| 20260903161533 | 55 | 96 | 4.0 | 7.0 | 0.02 | 0.40 | 0.09 | 89 | 1010.8 |
| 20260903160030 | 55 | 70 | 1.0 | 3.0 | 0.02 | 0.40 | 0.09 | 89 | 1010.9 |
| 20260903154512 | 55 | 104 | 1.0 | 4.0 | 0.03 | 0.39 | 0.08 | 89 | 1010.8 |
| 20260903153032 | 55 | 86 | 2.0 | 3.0 | 0.04 | 0.39 | 0.08 | 89 | 1010.7 |
| 20260903151541 | 55 | 68 | 1.0 | 3.0 | 0.03 | 0.38 | 0.07 | 89 | 1010.8 |
| 20260903150031 | 54 | 98 | 1.0 | 3.0 | 0.04 | 0.38 | 0.07 | 88 | 1010.4 |
| 20260903144510 | 55 | 129 | 2.0 | 8.0 | 0.03 | 0.36 | 0.05 | 86 | 1010.7 |
| 20260903143015 | 54 | 138 | 2.0 | 4.0 | 0.02 | 0.35 | 0.04 | 87 | 1010.5 |
| 20260903141536 | 54 | 88 | 3.0 | 4.0 | 0.02 | 0.35 | 0.04 | 87 | 1010.1 |
| 20260903140029 | 54 | 56 | 1.0 | 2.0 | 0.01 | 0.34 | 0.03 | 86 | 1010.0 |
| 20260903134544 | 55 | 56 | 0.0 | 0.0 | 0.00 | 0.33 | 0.02 | 86 | 1010.0 |
| 20260903133018 | 55 | 82 | 2.0 | 6.0 | 0.00 | 0.33 | 0.02 | 84 | 1010.0 |
| 20260903131523 | 55 | 91 | 0.0 | 4.0 | 0.00 | 0.33 | 0.02 | 84 | 1010.0 |
| 20260903130027 | 54 | 112 | 1.0 | 3.0 | 0.00 | 0.33 | 0.02 | 85 | 1009.9 |
| 20260903124548 | 54 | 113 | 2.0 | 4.0 | 0.00 | 0.33 | 0.02 | 87 | 1009.9 |
| 20260903123013 | 54 | 89 | 1.0 | 3.0 | 0.00 | 0.33 | 0.02 | 87 | 1009.9 |
| 20260903121537 | 53 | 89 | 2.0 | 4.0 | 0.00 | 0.33 | 0.02 | 87 | 1010.0 |
| 20260903120025 | 54 | 69 | 2.0 | 3.0 | 0.00 | 0.33 | 0.02 | 87 | 1010.2 |